| time (UTC) | temp C | wind direction | speed KPH | gust KPH | rain 1hr cm | rain 24hr cm | rain mn cm | humidity % | barometer mb |
| 20260508153626 | 18 | 109 | 0.0 | 0.0 | 0.00 | 0.00 | 0.00 | 40 | 974.7 |
| 20260508152556 | 18 | 109 | 0.0 | 0.0 | 0.00 | 0.00 | 0.00 | 45 | 974.7 |
| 20260508145322 | 18 | 109 | 0.0 | 0.0 | 0.00 | 0.00 | 0.00 | 42 | 974.7 |
| 20260508144319 | 18 | 109 | 0.0 | 0.0 | 0.00 | 0.00 | 0.00 | 37 | 974.7 |
| 20260508143248 | 18 | 109 | 0.0 | 0.0 | 0.00 | 0.00 | 0.00 | 35 | 974.7 |
| 20260508142307 | 18 | 109 | 0.0 | 0.0 | 0.00 | 0.00 | 0.00 | 28 | 974.5 |
| 20260508141242 | 17 | 108 | 0.0 | 0.0 | 0.00 | 0.00 | 0.00 | 26 | 974.4 |
| 20260508140306 | 17 | 108 | 0.0 | 0.0 | 0.00 | 0.00 | 0.00 | 27 | 974.5 |
| 20260508135314 | 17 | 108 | 0.0 | 0.0 | 0.00 | 0.00 | 0.00 | 18 | 974.6 |
| 20260508134333 | 17 | 108 | 0.0 | 0.0 | 0.00 | 0.00 | 0.00 | 9 | 974.8 |
| 20260508133305 | 16 | 108 | 0.0 | 0.0 | 0.00 | 0.00 | 0.00 | 9 | 974.8 |
| 20260508132301 | 16 | 108 | 0.0 | 0.0 | 0.00 | 0.00 | 0.00 | 1 | 974.3 |
| 20260508130122 | 16 | 108 | 0.0 | 0.0 | 0.00 | 0.00 | 0.00 | 5 | 975.1 |
| 20260508125136 | 16 | 108 | 0.0 | 0.0 | 0.00 | 0.00 | 0.00 | 4 | 974.9 |
| 20260508124148 | 16 | 108 | 0.0 | 0.0 | 0.00 | 0.00 | 0.00 | 3 | 975.1 |
| 20260508123130 | 16 | 108 | 0.0 | 0.0 | 0.00 | 0.00 | 0.00 | 5 | 975.0 |
| 20260508122141 | 16 | 108 | 0.0 | 0.0 | 0.00 | 0.00 | 0.00 | 4 | 975.1 |
| 20260508120048 | 15 | 108 | 0.0 | 0.0 | 0.00 | 0.00 | 0.00 | 6 | 975.2 |
| 20260508115057 | 15 | 108 | 0.0 | 0.0 | 0.00 | 0.00 | 0.00 | 6 | 975.3 |
| 20260508112923 | 16 | 108 | 0.0 | 0.0 | 0.00 | 0.00 | 0.00 | 1 | 975.6 |
| 20260508111903 | 15 | 108 | 0.0 | 0.0 | 0.00 | 0.00 | 0.00 | 4 | 975.7 |
| 20260508105818 | 15 | 108 | 0.0 | 0.0 | 0.00 | 0.00 | 0.00 | 7 | 975.3 |
| 20260508104834 | 15 | 108 | 0.0 | 0.0 | 0.00 | 0.00 | 0.00 | 7 | 975.1 |
| 20260508102651 | 16 | 108 | 0.0 | 0.0 | 0.00 | 0.00 | 0.00 | 2 | 975.0 |
| 20260508101651 | 15 | 108 | 0.0 | 0.0 | 0.00 | 0.00 | 0.00 | 4 | 975.4 |
| 20260508100639 | 15 | 108 | 0.0 | 0.0 | 0.00 | 0.00 | 0.00 | 8 | 975.6 |
| 20260508095639 | 15 | 108 | 0.0 | 0.0 | 0.00 | 0.00 | 0.00 | 5 | 975.8 |
| 20260508094656 | 15 | 108 | 0.0 | 0.0 | 0.00 | 0.00 | 0.00 | 7 | 975.8 |
| 20260508092508 | 15 | 108 | 0.0 | 0.0 | 0.00 | 0.00 | 0.00 | 1 | 975.6 |
| 20260508091530 | 16 | 108 | 0.0 | 0.0 | 0.00 | 0.00 | 0.00 | 1 | 975.5 |
| 20260508090527 | 15 | 108 | 0.0 | 0.0 | 0.00 | 0.00 | 0.00 | 2 | 975.4 |
| 20260508085529 | 15 | 108 | 0.0 | 0.0 | 0.00 | 0.00 | 0.00 | 11 | 975.4 |
| 20260508084534 | 15 | 108 | 0.0 | 0.0 | 0.00 | 0.00 | 0.00 | 29 | 975.3 |
| 20260508083538 | 15 | 108 | 0.0 | 0.0 | 0.00 | 0.00 | 0.00 | 28 | 975.3 |
| 20260508082553 | 15 | 108 | 0.0 | 0.0 | 0.00 | 0.00 | 0.00 | 27 | 975.4 |
| 20260508081519 | 15 | 108 | 0.0 | 0.0 | 0.00 | 0.00 | 0.00 | 27 | 975.3 |
| 20260508080504 | 15 | 108 | 0.0 | 0.0 | 0.00 | 0.00 | 0.00 | 27 | 975.5 |
| 20260508075503 | 15 | 108 | 0.0 | 0.0 | 0.00 | 0.00 | 0.00 | 27 | 975.3 |
| 20260508074517 | 15 | 108 | 0.0 | 0.0 | 0.00 | 0.00 | 0.00 | 24 | 975.2 |
| 20260508073453 | 15 | 108 | 0.0 | 0.0 | 0.00 | 0.00 | 0.00 | 22 | 975.1 |
| 20260508072455 | 15 | 108 | 0.0 | 0.0 | 0.00 | 0.00 | 0.00 | 18 | 975.2 |
| 20260508071427 | 15 | 108 | 0.0 | 0.0 | 0.00 | 0.00 | 0.00 | 10 | 975.2 |
| 20260508065355 | 15 | 108 | 0.0 | 0.0 | 0.00 | 0.00 | 0.00 | 1 | 975.8 |
| 20260508064322 | 15 | 108 | 0.0 | 0.0 | 0.00 | 0.00 | 0.00 | 1 | 975.9 |
| 20260508061023 | 15 | 108 | 0.0 | 0.0 | 0.00 | 0.00 | 0.00 | 1 | 976.4 |
| 20260508060042 | 15 | 108 | 0.0 | 0.0 | 0.00 | 0.00 | 0.00 | 1 | 976.2 |
| 20260508055106 | 15 | 108 | 0.0 | 0.0 | 0.00 | 0.00 | 0.00 | 1 | 975.9 |
| 20260508054056 | 15 | 108 | 0.0 | 0.0 | 0.00 | 0.00 | 0.00 | 1 | 976.0 |
| 20260508053108 | 15 | 108 | 0.0 | 0.0 | 0.00 | 0.00 | 0.00 | 1 | 976.3 |
| 20260508052053 | 15 | 108 | 0.0 | 0.0 | 0.00 | 0.00 | 0.00 | 1 | 976.2 |
| 20260508051038 | 15 | 108 | 0.0 | 0.0 | 0.00 | 0.00 | 0.00 | 1 | 976.1 |
| 20260508044950 | 15 | 108 | 0.0 | 0.0 | 0.00 | 0.00 | 0.00 | 1 | 976.0 |
| 20260508043938 | 15 | 108 | 0.0 | 0.0 | 0.00 | 0.00 | 0.00 | 1 | 976.8 |
| 20260508041806 | 15 | 108 | 0.0 | 0.0 | 0.00 | 0.00 | 0.00 | 1 | 975.6 |
| 20260508040813 | 15 | 108 | 0.0 | 0.0 | 0.00 | 0.00 | 0.00 | 1 | 976.1 |
| 20260508035740 | 14 | 108 | 0.0 | 0.0 | 0.00 | 0.00 | 0.00 | 1 | 976.8 |
| 20260508034749 | 15 | 108 | 0.0 | 0.0 | 0.00 | 0.00 | 0.00 | 4 | 976.5 |
| 20260508033724 | 15 | 108 | 0.0 | 0.0 | 0.00 | 0.00 | 0.00 | 15 | 976.9 |
| 20260508031649 | 15 | 108 | 0.0 | 0.0 | 0.00 | 0.00 | 0.00 | 29 | 977.3 |
| 20260508030710 | 15 | 108 | 0.0 | 0.0 | 0.00 | 0.00 | 0.00 | 36 | 977.2 |
| 20260508025717 | 15 | 108 | 0.0 | 0.0 | 0.00 | 0.00 | 0.00 | 43 | 976.6 |
| 20260508023602 | 15 | 108 | 0.0 | 0.0 | 0.00 | 0.00 | 0.00 | 50 | 975.7 |
| 20260508022605 | 15 | 108 | 0.0 | 0.0 | 0.00 | 0.00 | 0.00 | 52 | 975.5 |
| 20260508021536 | 15 | 108 | 0.0 | 0.0 | 0.00 | 0.00 | 0.00 | 55 | 974.7 |
| 20260508014315 | 15 | 109 | 0.0 | 0.0 | 0.00 | 0.00 | 0.00 | 61 | 975.1 |
| 20260508013339 | 15 | 109 | 0.0 | 0.0 | 0.00 | 0.00 | 0.00 | 62 | 975.0 |
| 20260508012317 | 15 | 109 | 0.0 | 0.0 | 0.00 | 0.00 | 0.00 | 62 | 974.7 |
| 20260508011310 | 16 | 100 | 0.0 | 0.0 | 0.00 | 0.00 | 0.00 | 63 | 974.8 |
| 20260508010318 | 16 | 99 | 0.0 | 0.0 | 0.00 | 0.00 | 0.00 | 63 | 974.8 |
| 20260508004242 | 16 | 99 | 0.0 | 0.0 | 0.00 | 0.00 | 0.00 | 64 | 975.8 |
| 20260508002115 | 17 | 98 | 0.0 | 0.0 | 0.00 | 0.00 | 0.00 | 63 | 975.6 |
| 20260508001105 | 17 | 98 | 0.0 | 0.0 | 0.00 | 0.00 | 0.00 | 63 | 975.7 |
| 20260508000041 | 18 | 98 | 0.0 | 0.0 | 0.00 | 0.00 | 0.00 | 62 | 976.0 |
| 20260507235027 | 18 | 98 | 0.0 | 0.0 | 0.00 | 0.00 | 0.00 | 63 | 976.4 |
| 20260507232858 | 18 | 98 | 0.0 | 0.0 | 0.00 | 0.00 | 0.00 | 62 | 976.4 |
| 20260507231854 | 18 | 98 | 0.0 | 0.0 | 0.00 | 0.00 | 0.00 | 62 | 976.6 |
| 20260507230916 | 18 | 98 | 0.0 | 0.0 | 0.00 | 0.00 | 0.00 | 61 | 976.2 |
| 20260507225940 | 19 | 98 | 0.0 | 0.0 | 0.00 | 0.00 | 0.00 | 62 | 976.2 |
| 20260507224910 | 18 | 98 | 0.0 | 0.0 | 0.00 | 0.00 | 0.00 | 62 | 976.5 |
| 20260507223919 | 19 | 98 | 0.0 | 0.0 | 0.00 | 0.00 | 0.00 | 61 | 976.3 |
| 20260507222927 | 19 | 97 | 0.0 | 0.0 | 0.00 | 0.00 | 0.00 | 62 | 976.8 |
| 20260507221900 | 18 | 97 | 0.0 | 0.0 | 0.00 | 0.00 | 0.00 | 62 | 976.8 |
| 20260507215718 | 19 | 97 | 0.0 | 0.0 | 0.00 | 0.00 | 0.00 | 61 | 977.1 |
| 20260507214644 | 20 | 97 | 0.0 | 0.0 | 0.00 | 0.00 | 0.00 | 60 | 977.0 |
| 20260507213636 | 20 | 97 | 0.0 | 0.0 | 0.00 | 0.00 | 0.00 | 60 | 977.5 |
| 20260507212620 | 20 | 107 | 0.0 | 0.0 | 0.00 | 0.00 | 0.00 | 60 | 977.6 |
| 20260507211633 | 19 | 109 | 0.0 | 0.0 | 0.00 | 0.00 | 0.00 | 61 | 977.5 |
| 20260507210604 | 18 | 109 | 0.0 | 0.0 | 0.00 | 0.00 | 0.00 | 61 | 976.8 |
| 20260507205530 | 17 | 109 | 0.0 | 0.0 | 0.00 | 0.00 | 0.00 | 61 | 977.2 |
| 20260507204535 | 17 | 109 | 0.0 | 0.0 | 0.00 | 0.00 | 0.00 | 62 | 977.5 |
| 20260507203550 | 17 | 109 | 0.0 | 0.0 | 0.00 | 0.00 | 0.00 | 62 | 977.5 |
| 20260507202611 | 18 | 109 | 0.0 | 0.0 | 0.00 | 0.00 | 0.00 | 61 | 977.6 |
| 20260507200411 | 18 | 109 | 0.0 | 0.0 | 0.00 | 0.00 | 0.00 | 61 | 977.9 |
| 20260507195434 | 18 | 111 | 0.0 | 0.0 | 0.00 | 0.00 | 0.00 | 60 | 978.0 |
| 20260507194406 | 17 | 112 | 0.0 | 0.0 | 0.00 | 0.00 | 0.00 | 60 | 978.0 |
| 20260507193332 | 17 | 113 | 0.0 | 0.0 | 0.00 | 0.00 | 0.00 | 60 | 978.5 |
| 20260507192337 | 17 | 113 | 0.0 | 0.0 | 0.00 | 0.00 | 0.00 | 59 | 978.6 |
| 20260507190154 | 16 | 111 | 0.0 | 0.0 | 0.00 | 0.00 | 0.00 | 58 | 978.7 |
| 20260507185217 | 16 | 114 | 0.0 | 0.0 | 0.00 | 0.00 | 0.00 | 57 | 978.6 |
| 20260507184210 | 16 | 114 | 0.0 | 0.0 | 0.00 | 0.00 | 0.00 | 58 | 977.8 |
| 20260507183231 | 16 | 111 | 0.0 | 0.0 | 0.00 | 0.00 | 0.00 | 57 | 978.6 |
| 20260507182244 | 16 | 111 | 0.0 | 0.0 | 0.00 | 0.00 | 0.00 | 56 | 978.0 |
| 20260507181212 | 16 | 111 | 0.0 | 0.0 | 0.00 | 0.00 | 0.00 | 57 | 978.3 |
| 20260507180221 | 16 | 111 | 0.0 | 0.0 | 0.00 | 0.00 | 0.00 | 58 | 978.3 |
| 20260507175209 | 17 | 106 | 0.0 | 0.0 | 0.00 | 0.00 | 0.00 | 57 | 978.8 |
| 20260507174145 | 17 | 145 | 0.0 | 1.6 | 0.00 | 0.00 | 0.00 | 49 | 978.9 |
| 20260507173122 | 17 | 138 | 0.0 | 0.0 | 0.00 | 0.00 | 0.00 | 24 | 978.7 |
| 20260507170944 | 15 | 169 | 0.0 | 0.0 | 0.00 | 0.00 | 0.00 | 1 | 978.3 |
| 20260507165929 | 15 | 159 | 0.0 | 1.6 | 0.00 | 0.00 | 0.00 | 1 | 977.9 |
| 20260507164941 | 15 | 329 | 0.0 | 0.0 | 0.00 | 0.00 | 0.00 | 1 | 978.3 |
| 20260507163924 | 15 | 329 | 0.0 | 0.0 | 0.00 | 0.00 | 0.00 | 1 | 979.5 |
| 20260507162928 | 15 | 329 | 0.0 | 0.0 | 0.00 | 0.00 | 0.00 | 1 | 979.3 |
| 20260507155553 | 15 | 0 | 0.0 | 0.0 | 0.00 | 0.00 | 0.00 | 1 | 979.9 |
| 20260507154531 | 15 | 12 | 0.0 | 0.0 | 0.00 | 0.00 | 0.00 | 1 | 979.5 |